Wind_Speed
13 17 20 20 22 23 21 24 30 30 28 25 23 23 23 22 22 21 21 21 20 20 20 19 19 18 18 21 24 26 27 25 22 20 19 17 15 13 12 11 10 9 8 7 7 7 6 7 7 6 6 8 11 12 12 12 11 11 12 11 12 12 11 9 8 7 5 3 1 1 1 1 2 3 3 4 5 5 4 3 3 1 1 4 4
12 14 18 21 23 24 24 26 29 29 30 28 26 25 23 22 22 21 20 21 21 20 20 19 20 20 19 21 25 25 24 22 19 19 19 18 16 13 12 10 10 10 8 7 8 7 6 7 7 6 5 6 9 11 12 13 12 11 12 11 10 10 9 7 5 4 4 3 2 1 1 1 2 2 3 4 4 5 5 3 3 1 4 5 4
11 12 15 20 23 25 25 27 29 30 30 29 27 25 24 23 22 20 20 21 19 17 17 18 19 19 20 23 25 23 20 18 18 18 18 17 16 14 12 10 10 11 10 9 10 8 6 7 8 6 5 5 7 8 10 13 13 12 11 10 9 8 6 4 4 4 4 4 3 2 1 1 1 1 3 4 2 2 4 3 1 1 3 3 3
12 12 13 17 20 23 24 26 29 30 29 29 28 26 25 24 23 21 21 20 18 16 17 18 18 20 23 25 24 22 21 20 20 19 17 17 15 14 14 12 12 13 12 12 11 9 7 9 9 7 5 4 6 7 8 11 13 12 11 10 8 7 6 4 5 5 5 5 3 1 1 2 1 1 2 3 2 2 1 2 1 1 1 2 3
14 14 13 13 16 20 23 26 28 29 29 28 29 28 26 26 24 22 22 20 18 18 19 20 23 26 28 27 24 24 24 22 21 20 18 18 17 15 14 14 16 15 13 12 12 12 11 10 10 9 7 5 5 6 7 8 9 9 10 11 9 8 7 6 5 6 6 5 4 3 1 1 1 1 2 2 1 2 2 2 2 2 1 2 1
14 15 14 12 14 18 21 25 27 28 30 29 29 29 28 28 25 22 22 19 19 20 20 21 25 28 28 28 26 25 23 21 22 22 20 18 17 16 15 14 15 16 14 13 13 13 13 13 13 12 11 10 8 6 7 8 7 7 7 8 7 7 7 6 6 5 7 7 5 4 2 2 2 0 2 0 1 1 2 3 3 3 3 4 2
11 13 12 11 14 17 19 25 27 28 31 31 28 27 28 29 26 23 22 19 19 20 20 20 23 24 23 24 25 24 22 21 22 22 20 19 19 17 16 15 13 14 14 13 14 13 13 13 12 12 13 15 15 13 13 12 9 8 7 6 6 6 7 7 6 5 6 6 6 5 2 2 1 0 1 0 1 1 1 3 4 5 5 6 4
12 14 14 13 16 19 21 27 30 31 32 31 29 27 28 28 27 26 23 19 19 19 20 20 21 20 21 22 23 23 22 23 23 21 20 20 20 18 17 15 13 12 11 12 13 13 12 12 12 12 13 14 16 17 16 15 14 13 12 11 10 8 7 8 9 7 4 4 5 6 5 4 3 3 3 2 1 0 2 2 3 4 5 6 6
12 13 13 12 16 22 25 28 31 33 34 33 32 30 29 28 28 28 25 20 19 20 20 20 20 20 22 24 24 23 24 24 22 20 20 21 21 19 17 15 14 13 12 12 13 12 13 14 14 12 11 10 12 14 14 14 15 15 14 13 14 13 11 11 12 9 6 4 3 4 5 5 3 1 2 4 2 1 1 3 2 1 4 5 5
9 9 9 11 17 22 26 28 28 32 33 33 33 32 30 29 28 27 26 23 20 21 22 20 21 23 24 25 26 27 26 24 21 20 21 21 21 19 17 16 16 15 14 14 13 12 13 15 14 12 10 9 9 10 12 13 13 13 13 13 14 15 14 14 13 12 10 8 6 5 5 4 3 2 0 2 2 1 1 3 5 5 4 4 3
6 5 5 8 10 13 19 22 25 29 29 28 30 31 29 27 25 24 24 25 23 23 24 23 24 26 25 27 29 28 27 24 23 22 22 22 20 19 18 18 17 15 14 14 13 12 13 14 15 14 13 12 12 11 12 12 12 12 12 11 11 12 13 13 12 12 12 12 12 10 9 8 7 6 6 6 5 3 1 3 7 10 8 7 8
7 6 5 5 4 6 13 18 21 24 25 25 25 25 23 23 25 24 22 24 26 26 25 25 26 25 24 28 29 27 27 26 25 25 24 21 20 20 19 18 17 14 13 13 13 13 14 15 15 14 13 13 13 13 12 12 11 11 10 10 10 10 10 9 9 9 10 12 12 11 10 9 8 8 7 8 8 6 4 3 6 9 8 9 13
8 6 5 6 5 5 8 14 18 21 24 23 21 22 24 26 31 31 26 23 25 28 27 26 26 23 24 29 27 27 28 27 27 25 22 21 21 22 20 18 17 15 13 13 14 14 13 14 14 13 13 13 12 12 11 11 10 10 11 11 11 11 10 9 8 9 10 10 10 9 7 6 6 7 6 6 6 5 7 5 5 7 5 8 12
8 7 5 5 4 5 3 3 13 23 26 22 22 27 30 31 33 31 24 19 20 25 24 23 25 21 22 29 26 27 29 26 27 25 22 23 23 21 19 17 17 15 13 14 14 13 10 11 12 12 13 13 12 10 10 11 10 11 12 11 12 12 11 11 10 10 10 10 9 8 6 5 6 5 4 4 4 5 7 6 4 5 4 6 9
7 6 6 6 5 6 9 11 4 17 25 25 26 27 23 22 24 21 13 8 12 21 20 18 21 19 18 27 28 28 29 26 26 25 23 25 23 20 18 16 15 14 12 12 13 12 10 9 9 12 13 13 12 10 9 10 10 10 10 10 11 11 11 11 11 11 11 11 9 7 6 6 5 5 4 4 4 3 5 5 5 4 3 4 5
7 7 7 6 7 6 11 16 15 10 16 21 20 16 17 17 19 19 14 8 10 20 21 18 20 20 18 25 29 28 29 26 25 25 23 24 23 19 18 17 15 14 13 12 12 11 9 8 8 10 11 12 12 11 10 8 8 8 8 9 10 9 8 9 10 10 10 10 9 6 6 7 6 5 5 5 4 4 4 5 7 7 4 3 3
7 6 6 6 7 9 11 15 18 18 17 19 17 15 16 19 22 24 22 19 17 20 22 22 23 23 20 23 29 28 28 26 25 25 24 23 23 20 19 19 17 16 14 14 13 11 9 7 8 9 9 11 12 11 10 7 6 7 8 8 8 6 5 6 7 8 8 8 8 5 4 6 5 6 7 8 7 7 6 6 6 8 6 4 2
7 6 6 6 9 11 11 14 18 19 20 19 19 22 28 28 25 25 23 25 25 22 23 24 26 26 23 22 27 27 26 26 24 24 24 25 23 21 21 21 19 18 16 15 14 12 10 8 9 9 9 11 11 9 9 8 6 6 7 7 6 5 5 4 4 4 5 5 6 6 4 4 5 6 8 8 8 8 7 5 4 5 5 4 2
7 5 5 5 9 13 15 16 18 18 18 20 21 25 31 28 25 27 26 27 30 28 27 28 28 27 25 24 26 24 23 24 24 24 24 25 24 21 21 22 21 20 18 16 16 14 11 10 9 9 10 11 11 8 8 9 7 6 7 7 6 6 6 5 3 2 2 3 4 6 4 2 3 4 4 4 5 6 6 5 4 3 3 3 4
6 5 5 5 8 13 16 18 20 21 17 18 23 26 29 28 26 28 28 29 33 34 31 31 30 26 23 25 24 22 22 22 23 25 23 24 25 22 21 21 22 21 19 17 16 14 13 11 10 10 10 11 12 10 10 10 9 8 8 8 7 7 7 5 4 3 2 2 3 3 2 2 3 2 1 2 2 4 5 6 6 4 3 3 5
6 5 4 5 7 12 16 17 19 21 21 19 19 21 25 28 28 29 29 30 34 34 31 31 29 23 20 24 23 21 23 22 22 25 24 23 24 23 21 20 21 21 20 18 16 14 13 12 12 12 11 11 13 13 12 13 12 11 11 11 9 8 8 7 5 4 4 3 1 0 2 5 4 2 1 1 1 3 4 6 7 6 5 4 6
7 6 5 4 7 11 14 17 19 20 21 21 20 19 19 21 23 25 27 28 29 30 28 26 25 22 19 21 22 20 19 18 19 24 24 22 22 22 22 21 22 23 21 18 16 15 13 12 12 13 12 12 12 14 15 15 14 13 13 13 12 11 11 10 8 7 7 6 4 4 4 5 5 5 4 2 1 3 4 5 5 3 4 5 5
7 6 5 5 8 12 14 15 17 18 19 20 22 22 19 17 17 18 20 21 22 22 19 15 17 24 25 20 18 20 17 15 17 20 21 19 19 20 22 23 23 22 21 19 17 15 14 14 14 15 15 14 13 14 15 16 16 16 15 15 14 13 13 13 12 11 10 8 7 6 5 5 6 7 5 3 2 4 4 5 5 3 4 6 6
7 6 5 7 10 12 12 12 14 16 17 18 19 21 20 19 17 15 14 13 16 17 15 10 9 17 24 21 17 16 15 13 14 16 17 16 16 17 19 22 22 20 17 16 16 16 16 16 17 18 18 17 16 17 17 17 17 18 17 17 17 16 15 15 15 15 13 11 10 9 8 7 8 8 6 3 3 5 5 4 5 5 5 7 8
8 6 6 7 8 8 9 11 12 14 15 16 16 17 18 17 16 15 14 13 13 14 15 13 10 11 17 21 20 18 16 14 13 12 12 13 14 14 16 19 21 19 16 13 14 17 17 17 17 18 20 21 20 19 20 20 19 20 20 19 19 19 17 16 16 16 14 13 13 13 10 9 9 9 7 5 5 7 6 5 5 6 7 8 9
8 7 6 7 6 7 10 11 12 13 14 15 15 14 14 14 14 14 14 14 15 16 15 15 14 11 10 14 17 18 17 17 16 15 13 11 10 10 12 15 18 20 17 13 13 16 17 15 14 13 16 21 23 22 22 22 22 22 22 21 21 22 19 17 17 16 14 13 13 12 10 10 10 9 8 8 8 8 8 8 7 7 8 9 9
6 7 6 6 6 7 10 13 13 13 14 15 15 15 14 13 12 12 13 14 15 17 16 15 15 15 10 6 6 7 8 10 12 14 14 14 12 9 9 13 16 19 19 16 15 15 15 14 14 13 14 18 22 24 24 25 25 24 24 23 24 23 20 19 18 17 15 14 13 12 11 10 10 9 9 9 10 10 9 8 8 8 8 9 10
6 7 7 7 7 6 8 13 14 14 14 15 15 15 15 14 12 11 12 13 13 14 14 13 13 13 11 7 4 4 4 5 6 8 9 11 13 11 11 13 16 18 20 20 19 19 19 19 19 21 21 20 20 23 25 27 27 27 26 25 25 24 21 20 19 18 16 15 14 13 11 10 10 11 11 11 11 11 10 9 9 11 11 11 10
5 8 7 6 7 6 8 12 14 15 15 15 15 15 14 13 12 11 11 11 11 11 11 11 11 12 12 11 10 10 10 8 8 8 8 9 10 11 12 14 15 17 18 19 19 19 20 21 21 22 25 24 23 22 23 25 27 27 28 27 26 25 23 21 20 18 16 15 14 13 13 12 12 13 13 13 13 12 11 11 13 14 12 10 10
2 6 8 7 6 7 9 12 14 15 16 16 16 16 14 12 11 11 11 11 10 10 10 11 11 11 12 11 12 12 11 10 10 10 10 10 10 10 10 11 12 13 14 15 15 16 18 19 19 20 22 24 25 25 24 24 24 25 26 26 26 26 24 23 22 20 18 16 14 14 14 13 13 13 13 13 13 13 13 14 14 12 10 9 9
5 4 7 8 7 7 9 12 14 15 15 16 16 16 15 13 11 10 10 9 9 10 11 10 10 10 10 10 11 10 10 10 10 9 9 10 10 9 8 8 9 10 11 12 13 14 16 18 19 20 22 23 24 25 25 25 25 24 23 24 25 26 26 25 24 22 21 19 17 15 14 13 14 14 14 14 14 14 15 15 12 9 8 8 8
5 6 6 7 7 7 9 12 13 13 12 12 15 16 15 13 11 9 9 8 8 9 8 8 9 10 10 10 11 10 9 10 10 8 8 9 9 8 8 8 8 9 9 10 11 13 13 13 14 16 18 19 20 21 22 23 24 24 24 24 24 26 26 26 25 24 23 21 19 16 14 13 14 14 15 16 15 16 16 15 12 10 9 9 9
3 7 6 5 6 7 10 13 13 12 10 9 13 16 15 11 9 8 7 7 7 8 7 7 8 9 9 10 11 10 9 9 8 8 8 7 6 7 7 8 9 9 9 11 12 11 10 9 10 12 13 15 17 19 20 20 22 23 24 24 24 26 28 27 26 25 23 20 17 15 14 14 14 15 15 15 15 15 14 13 12 12 11 11 10
8 5 5 6 8 11 15 17 14 12 12 9 10 13 12 10 10 10 9 8 9 10 8 8 9 9 7 8 9 9 10 10 8 7 6 6 5 4 4 6 7 8 9 11 13 12 10 9 10 12 12 12 14 16 17 18 19 19 19 22 24 26 27 24 22 20 18 16 15 13 13 14 14 13 12 12 13 14 13 13 13 12 12 11 11
9 8 7 8 11 13 15 16 13 10 11 9 5 9 7 6 8 11 11 9 10 12 13 11 11 11 10 9 9 9 9 8 7 6 6 5 4 4 3 3 5 6 7 8 9 11 12 13 13 12 11 12 13 12 12 13 14 15 16 19 21 22 22 20 18 16 13 13 13 11 10 11 10 8 8 9 10 12 13 13 12 12 12 12 12
8 10 11 13 17 17 13 11 9 8 11 11 7 4 2 1 3 7 8 6 7 9 13 13 12 12 11 12 12 11 9 7 6 7 6 5 4 4 3 3 4 6 8 8 8 8 10 14 16 13 12 12 12 10 8 8 10 13 16 18 18 18 17 15 14 12 10 11 12 11 11 10 9 9 9 11 13 14 14 14 13 12 12 13 14
8 10 9 11 15 17 13 8 7 8 10 10 8 7 7 5 4 1 1 5 8 6 7 9 10 9 9 12 14 11 9 8 7 6 5 4 4 4 4 4 4 5 7 9 9 9 9 11 14 15 14 13 10 7 6 7 11 14 16 16 15 15 13 11 10 11 11 10 10 10 11 11 11 11 12 14 16 16 15 14 14 14 14 15 15
8 9 7 4 4 5 7 3 4 8 9 8 8 8 8 6 7 8 7 7 6 5 5 6 7 7 7 11 12 9 7 8 7 6 4 3 4 4 4 5 5 6 7 7 8 9 10 10 11 13 13 12 9 9 10 11 14 15 15 14 13 12 11 9 8 8 8 7 8 10 12 12 12 14 14 15 15 14 13 13 12 13 14 15 16
12 10 11 11 8 5 4 1 2 4 6 7 7 6 6 6 7 8 11 12 10 7 7 6 2 2 2 4 6 6 8 7 5 5 5 5 5 5 5 6 6 7 8 9 9 10 11 11 11 12 12 10 9 11 13 14 15 14 13 14 13 12 11 8 6 5 5 6 10 12 13 12 13 14 13 12 11 10 10 10 11 13 15 17 19
15 13 13 14 13 11 10 8 5 5 5 8 10 9 7 7 6 7 10 13 13 12 11 9 6 4 3 2 1 2 5 6 7 8 8 8 8 7 7 7 8 8 9 10 11 12 12 12 13 13 11 10 11 13 15 15 15 14 14 14 13 12 11 8 6 4 2 4 8 10 9 9 9 9 8 7 6 7 9 12 14 16 17 18 19
18 18 17 14 12 12 13 15 13 10 9 10 10 8 7 7 7 8 10 11 13 14 14 12 10 8 7 6 5 5 7 8 11 12 12 11 11 10 9 8 9 11 11 10 10 12 13 13 12 12 11 11 11 14 16 16 15 14 14 14 13 12 11 10 8 6 5 3 2 4 5 4 4 4 4 6 9 11 13 15 16 16 16 16 17
22 22 20 17 14 13 13 14 15 13 12 12 11 10 9 8 8 10 11 12 13 13 14 14 13 12 11 10 10 11 11 11 11 12 13 12 11 11 11 11 12 13 12 9 11 13 14 14 12 11 12 13 13 14 15 16 16 14 13 12 12 11 10 9 8 6 3 4 3 4 5 2 1 4 7 10 12 13 14 14 14 14 15 16 16
22 24 22 20 18 16 15 16 17 16 16 16 16 16 15 14 14 14 15 15 15 14 15 16 16 15 13 12 11 12 12 12 11 10 11 12 12 12 12 13 14 14 11 11 15 16 16 15 14 14 13 13 14 14 14 15 15 14 12 12 11 9 7 5 4 3 1 1 2 2 1 3 6 9 12 12 11 11 12 12 13 13 14 15 16
19 21 23 22 21 20 21 22 22 21 21 20 19 18 18 19 19 19 18 18 17 16 16 16 15 14 13 14 15 15 16 16 15 14 14 14 14 14 15 15 15 14 12 16 18 18 17 17 16 15 14 12 13 14 15 14 14 13 12 11 10 7 4 4 3 3 2 2 2 4 6 8 11 12 12 10 9 9 10 10 11 12 13 14 16
20 21 22 22 23 23 23 24 24 24 24 24 23 20 19 19 20 19 19 19 18 16 14 13 13 13 14 15 17 18 18 18 17 18 18 17 18 18 17 14 12 12 14 18 19 18 17 17 16 15 14 14 14 15 15 15 14 13 11 9 8 6 3 2 2 2 3 4 5 7 9 11 11 11 10 9 10 10 10 10 11 12 12 14 16
20 21 22 21 21 22 22 23 24 24 25 25 25 23 21 20 21 21 20 20 20 19 18 17 18 18 19 19 20 20 20 19 18 17 16 17 19 19 16 14 13 13 15 17 18 18 17 17 17 16 16 17 17 16 17 16 15 13 11 9 8 6 4 3 2 3 4 5 7 8 10 10 9 8 8 8 8 9 9 10 11 13 14 16 18
20 20 20 21 21 20 19 19 19 19 18 18 19 18 16 15 15 15 15 15 15 15 16 18 19 22 25 24 23 24 25 25 24 20 14 11 11 13 14 14 14 13 14 16 18 18 18 18 18 17 18 19 19 18 18 17 15 13 12 10 8 6 5 4 4 4 5 6 6 6 6 6 6 6 6 7 8 9 10 11 13 15 17 18 19
21 21 21 21 20 17 16 16 17 18 18 18 18 18 17 17 16 15 14 15 15 16 16 16 16 19 22 22 21 19 19 21 22 17 10 8 9 11 12 12 12 11 12 16 19 20 20 20 19 19 20 20 19 19 19 17 16 14 12 10 8 6 5 5 4 5 5 4 3 3 4 6 7 7 8 10 11 11 13 14 16 17 18 19 21
21 22 22 20 19 19 18 18 18 19 19 19 19 20 20 20 20 19 18 18 18 19 20 19 17 16 17 18 17 14 10 11 12 11 11 12 12 12 12 12 12 12 12 14 17 20 20 19 18 20 23 23 20 19 18 17 15 13 11 9 8 6 4 3 3 3 2 2 4 6 7 8 10 11 12 13 13 14 15 17 18 19 20 22 23
19 19 19 19 20 20 19 18 17 17 18 18 19 20 20 21 21 20 20 20 20 21 22 22 19 16 16 16 16 14 11 9 11 14 14 13 12 12 13 13 12 11 11 12 15 18 19 19 19 20 23 24 23 20 17 15 13 11 9 8 6 4 2 1 1 3 4 5 7 8 9 10 11 12 12 13 14 16 18 19 19 20 21 22 24
18 19 18 19 21 22 21 21 20 20 20 20 20 20 20 21 21 20 19 20 21 22 22 21 19 17 17 16 16 15 11 9 13 17 16 14 13 12 12 12 12 10 8 10 14 18 19 20 22 21 20 20 21 19 16 14 12 11 9 7 5 4 3 4 5 6 7 7 8 8 9 9 10 11 12 13 15 17 18 19 20 21 21 23 24
Wind_Direction
174 178 185 183 179 183 175 160 160 159 159 164 161 161 160 157 159 157 155 150 146 151 150 150 154 151 148 143 136 135 135 132 128 130 130 129 130 131 134 138 145 148 138 135 136 135 149 162 163 166 187 207 202 194 192 189 185 181 176 173 170 163 161 167 168 167 162 154 179 244 276 276 284 312 318 296 277 262 263 277 264 258 350 314 306
166 172 180 178 177 184 177 161 160 160 161 165 165 164 163 164 166 161 157 154 150 154 158 160 162 162 156 147 141 136 135 133 127 130 132 130 130 130 135 138 144 143 133 144 140 117 123 147 151 150 161 190 197 202 204 192 182 181 180 177 174 171 171 178 182 175 168 162 137 59 353 283 286 320 352 333 295 261 255 281 297 293 60 30 335
171 169 174 178 181 184 176 165 166 166 164 166 168 167 166 168 170 165 158 156 158 164 172 175 170 165 159 150 144 135 131 129 122 124 128 132 132 129 130 132 139 136 123 132 144 130 114 132 146 149 146 165 179 188 200 194 185 186 188 185 181 183 187 195 204 177 135 130 118 67 357 356 9 4 37 22 345 276 246 244 305 357 70 34 343
175 171 175 182 182 182 177 169 168 168 166 167 168 168 169 173 175 170 160 158 167 168 164 168 162 152 147 144 140 131 125 124 122 123 123 127 129 124 118 116 123 128 119 117 128 134 125 120 128 133 129 142 151 149 165 183 190 193 196 198 200 206 210 208 208 185 141 129 126 108 123 81 40 317 38 43 55 85 126 162 163 182 77 351 310
173 171 179 184 180 181 179 172 170 170 168 168 170 171 173 178 179 173 164 165 174 168 156 149 144 139 136 134 131 129 130 130 127 124 120 118 121 120 113 110 115 121 123 117 113 119 125 123 118 111 102 116 136 128 136 165 181 189 197 206 212 217 214 194 186 187 168 158 149 133 89 96 194 255 37 42 131 134 127 136 141 186 218 312 306
170 171 177 183 179 176 176 175 172 173 173 170 171 173 176 180 181 177 170 173 178 172 164 153 144 140 138 136 136 136 137 136 131 127 124 120 119 120 114 110 113 116 121 121 113 110 112 116 114 105 96 102 119 125 127 139 147 160 177 192 198 201 198 178 171 187 188 186 175 157 127 122 157 88 73 5 262 198 205 205 211 216 247 282 269
158 168 174 175 174 170 172 178 177 176 176 172 170 172 176 177 178 177 174 179 180 176 176 166 154 150 148 144 143 144 141 136 133 129 127 123 119 118 113 108 112 116 119 117 115 112 107 109 111 110 105 102 108 114 116 115 115 123 131 138 150 168 182 172 164 178 189 199 205 207 195 139 139 244 162 236 337 292 237 206 227 241 256 270 258
159 170 178 175 174 172 172 178 181 180 177 174 173 173 173 172 175 175 172 180 186 183 184 178 167 161 154 148 147 148 142 136 135 130 127 124 120 119 117 115 114 117 121 120 117 112 105 110 116 118 115 109 110 113 114 111 108 112 115 115 114 122 143 137 130 137 145 175 200 211 218 214 224 250 239 210 130 292 294 249 244 248 244 246 245
164 171 177 171 170 174 175 178 183 182 178 179 182 180 175 171 173 173 168 177 192 191 188 184 175 165 156 153 150 145 141 139 135 129 128 127 123 123 123 121 116 113 116 122 124 114 101 107 116 119 119 119 118 114 114 114 111 113 116 113 108 108 116 114 110 112 112 119 157 180 187 193 199 203 227 223 192 173 278 290 303 276 249 250 251
168 167 168 172 175 178 179 179 182 184 182 182 186 187 184 179 178 176 169 175 195 197 191 185 173 166 162 158 150 143 141 139 135 134 136 134 129 129 126 121 118 114 112 116 124 123 108 104 105 106 107 112 123 122 119 117 111 108 111 114 115 113 116 119 115 110 107 102 105 133 147 144 135 113 98 252 243 220 260 319 356 357 317 309 312
154 133 139 171 178 179 180 180 184 187 183 180 186 189 186 182 181 182 175 177 193 198 192 184 173 172 171 161 152 148 146 143 141 143 144 140 135 133 131 126 123 120 118 116 120 124 118 111 105 102 100 96 103 110 109 109 109 107 108 116 124 123 124 128 126 119 111 100 97 106 112 105 96 80 56 50 56 51 25 336 352 356 350 351 346
101 93 93 107 119 152 175 186 189 190 187 181 181 179 175 173 178 186 183 180 191 197 192 185 180 182 176 163 157 155 152 149 149 149 147 145 139 138 137 133 130 128 127 124 121 121 120 118 114 110 110 104 100 102 103 106 109 111 113 115 121 129 139 143 137 132 124 109 101 102 105 103 95 85 70 60 59 49 41 23 2 3 354 344 345
90 90 80 75 81 117 169 193 194 193 196 185 165 161 169 175 180 187 188 183 188 192 191 188 189 190 178 167 163 161 158 156 154 153 154 152 146 144 145 142 140 139 136 132 127 124 123 125 125 120 117 114 111 111 114 118 117 116 117 115 113 119 130 137 134 135 133 121 112 109 109 108 99 94 87 74 73 69 62 49 17 15 354 331 345
80 78 68 63 50 25 29 191 196 200 199 181 165 173 179 181 183 184 184 183 184 186 189 191 196 199 182 172 168 165 164 160 159 159 158 157 154 152 153 149 147 148 142 136 130 126 127 129 131 131 127 123 119 116 114 115 116 116 115 112 109 112 116 119 120 126 132 128 120 116 116 115 107 102 90 73 76 81 73 61 21 10 351 341 349
70 65 53 41 13 5 34 50 108 197 193 177 177 178 164 161 171 169 164 170 177 181 183 184 197 214 196 178 174 171 168 164 162 163 160 162 162 158 158 153 148 150 146 138 132 133 138 137 135 137 137 133 128 124 123 122 119 116 116 114 109 106 108 111 113 116 124 125 115 106 101 103 108 100 74 54 58 65 68 60 38 25 356 341 344
65 55 38 13 4 37 68 67 76 127 156 157 165 151 120 134 159 159 160 171 173 177 176 171 193 226 220 186 178 175 171 166 165 166 163 166 168 164 164 161 153 152 149 142 141 148 154 152 148 145 143 144 141 137 135 137 137 130 125 118 108 99 96 100 103 105 114 117 107 93 81 81 89 83 55 43 57 62 62 52 27 24 22 339 327
70 59 38 14 22 57 81 84 92 106 122 136 145 144 152 172 175 169 174 179 174 176 176 172 189 223 229 193 181 179 173 169 169 171 170 169 170 170 168 166 161 160 157 152 155 165 168 162 160 155 149 149 149 150 151 151 151 139 129 119 110 106 100 93 89 92 103 109 105 98 78 61 61 66 57 54 65 67 67 61 24 11 18 10 341
76 59 39 32 31 44 65 77 93 114 131 142 150 163 179 187 178 168 171 172 170 176 181 178 188 213 223 198 182 179 176 173 173 174 175 173 171 171 172 171 170 168 164 162 165 173 175 173 172 168 162 155 153 162 169 163 161 153 141 137 136 144 144 117 94 91 97 105 110 107 84 42 41 57 55 51 59 63 60 58 31 5 8 14 6
77 55 39 42 37 43 58 65 73 93 121 143 152 165 179 185 175 168 168 166 168 180 187 184 190 209 216 201 187 182 179 179 179 178 179 178 172 169 171 173 173 173 169 168 172 178 180 179 179 178 176 169 164 176 185 173 179 187 167 164 170 166 163 150 145 158 104 99 118 117 99 37 24 40 42 39 40 40 35 30 31 30 16 354 340
95 79 53 48 49 53 61 65 64 67 84 125 148 161 173 178 173 169 168 167 173 184 189 187 193 206 208 198 192 189 187 188 186 182 182 181 174 168 169 172 174 176 174 173 177 182 185 186 189 190 188 183 177 184 194 186 191 205 191 188 196 178 175 182 176 189 195 113 110 117 112 347 354 24 77 82 21 349 340 336 339 348 353 329 314
104 102 78 57 60 63 65 69 70 70 72 92 123 145 162 172 174 170 168 170 177 186 191 191 193 198 199 195 193 192 193 195 193 188 184 180 176 172 170 170 173 177 178 179 183 187 191 191 195 199 198 195 191 191 199 196 197 208 203 203 211 194 192 212 209 200 208 199 182 252 294 307 317 335 25 159 336 341 331 326 323 314 318 327 309
119 116 108 89 75 71 71 73 73 74 76 82 92 107 134 157 168 170 169 172 178 185 190 191 190 191 191 191 189 186 185 183 183 185 179 169 167 169 167 164 167 175 179 183 188 192 198 199 202 208 208 208 206 203 206 205 203 210 211 209 213 203 199 215 221 214 217 222 226 231 256 282 287 304 320 296 313 358 358 351 355 350 339 349 343
125 124 126 120 98 86 82 82 80 77 79 83 86 92 105 123 141 156 164 173 180 180 177 176 184 190 189 183 179 178 173 162 161 170 170 160 156 160 165 165 164 169 177 186 192 194 199 204 207 210 212 216 218 215 215 214 210 213 216 214 215 212 206 212 220 217 217 226 229 223 227 244 259 279 298 304 322 338 332 325 335 349 343 342 345
124 126 124 115 105 100 96 91 90 89 86 87 89 93 99 106 117 127 134 153 168 169 168 161 153 171 175 168 157 159 158 148 145 154 162 164 161 159 164 169 167 162 162 174 189 198 204 208 210 212 214 218 221 220 221 222 219 218 220 218 217 219 215 213 218 217 215 225 230 226 225 231 247 265 275 283 300 302 298 292 297 305 310 316 322
131 135 131 125 121 117 113 105 100 100 97 94 95 96 99 103 108 113 115 122 136 149 163 166 149 147 159 156 150 150 153 151 150 154 161 168 174 173 171 173 175 170 158 157 174 187 195 201 207 214 218 220 222 224 224 225 225 222 222 222 220 221 220 217 220 219 218 224 229 228 225 223 236 254 255 253 266 272 276 277 283 295 297 299 307
142 142 142 142 140 130 125 120 114 112 110 106 105 105 106 109 108 110 116 120 128 137 140 144 153 156 148 143 146 149 154 161 164 168 171 168 169 179 182 185 189 185 181 184 185 182 184 191 202 220 232 230 227 227 228 228 227 223 222 223 223 224 224 221 221 222 221 225 226 222 216 215 228 241 238 240 254 261 268 276 281 289 292 294 301
126 120 118 116 120 129 133 133 130 126 120 113 110 109 110 114 116 117 120 120 128 137 136 132 140 147 141 126 127 133 143 162 167 168 172 170 166 177 198 207 208 203 204 219 224 211 203 203 209 226 247 248 236 232 232 231 230 226 223 223 224 224 223 221 221 223 222 222 219 212 210 216 226 234 234 238 249 257 265 271 275 282 287 293 300
116 103 98 93 91 93 114 132 141 140 132 123 118 116 114 115 118 121 123 122 124 130 134 134 134 138 147 161 185 182 161 155 157 160 170 180 188 199 207 209 213 215 219 228 235 235 234 236 237 238 244 248 241 236 237 234 231 228 224 223 224 222 221 219 219 220 218 218 220 221 224 225 226 232 238 242 248 254 257 263 277 286 288 291 297
106 108 104 96 92 81 84 104 119 123 123 124 122 120 118 118 119 123 125 125 128 127 127 132 132 131 136 146 157 157 148 138 134 137 146 162 178 189 195 200 206 214 222 230 234 235 237 242 244 240 238 239 238 238 241 237 233 229 225 223 223 221 219 216 214 213 213 215 221 228 231 229 229 236 243 247 250 251 253 271 288 291 288 290 294
160 139 131 122 112 104 96 97 104 110 113 117 122 122 124 123 117 119 123 126 130 131 130 132 132 131 131 137 143 142 141 144 142 141 146 152 158 167 181 195 204 212 222 231 234 233 235 240 241 239 241 243 241 241 244 241 237 232 225 221 221 220 217 214 209 206 207 211 216 221 223 226 233 241 245 248 252 254 263 279 289 289 286 290 293
187 160 138 134 128 114 103 98 103 112 115 120 126 127 129 133 129 124 126 127 127 130 134 136 138 142 143 144 148 147 147 152 151 151 159 161 162 169 178 188 201 214 221 225 231 235 238 243 246 247 250 251 249 250 251 250 247 240 229 223 221 218 215 211 207 206 209 212 213 216 220 229 239 246 249 254 258 263 272 281 286 285 285 284 285
166 152 136 136 138 128 118 111 111 118 123 132 139 136 134 136 139 141 144 143 140 137 143 151 152 156 160 159 159 158 157 157 156 159 166 167 171 182 192 201 210 217 219 222 230 236 239 244 248 251 256 258 259 260 260 259 258 251 239 229 223 217 212 208 207 209 212 212 212 217 224 232 239 245 250 255 260 266 273 279 283 283 277 272 274
139 158 145 130 127 121 113 107 108 109 105 121 142 146 150 155 160 169 175 176 177 173 179 190 183 173 166 159 160 163 161 159 157 158 165 170 182 193 203 219 227 227 225 225 229 235 242 246 248 253 261 264 262 261 260 260 260 256 245 233 224 217 211 208 207 208 209 208 208 213 222 231 238 242 247 252 257 264 271 275 278 278 274 270 271
43 69 66 71 86 90 89 89 92 91 80 87 122 138 151 168 178 189 194 189 185 183 179 176 175 178 174 164 164 163 156 157 161 164 168 176 194 206 206 219 228 227 226 224 220 220 223 232 245 255 263 267 264 260 260 258 257 254 242 227 217 211 206 202 200 199 199 200 203 210 221 229 234 240 247 253 256 262 269 272 271 267 264 264 266
46 41 30 36 51 62 73 78 81 76 59 52 104 140 155 183 194 196 197 201 199 190 185 180 174 179 184 179 174 166 159 164 170 169 172 180 194 211 218 226 232 231 234 236 229 225 228 234 244 254 261 266 266 266 267 263 256 245 227 214 207 200 193 189 186 186 191 199 205 212 218 217 219 235 253 259 260 262 265 265 262 258 260 264 268
60 50 30 19 21 24 35 53 53 43 39 40 59 102 96 301 213 188 183 215 238 209 197 197 189 186 193 190 182 176 173 177 177 176 182 182 185 201 211 222 242 239 238 248 253 253 250 241 234 235 245 254 261 267 268 257 239 222 208 198 190 182 178 181 181 181 193 205 210 219 226 230 242 262 270 269 268 268 267 266 263 263 268 272 276
78 74 46 17 15 11 6 17 26 16 22 31 29 17 10 2 343 336 209 247 256 240 221 208 190 194 210 195 180 173 173 178 182 186 191 189 189 208 222 229 249 252 243 246 253 263 269 249 229 224 230 235 237 238 234 215 202 198 193 186 181 177 178 187 192 191 197 204 213 231 247 259 266 266 261 259 260 260 258 258 261 266 272 275 278
56 84 66 34 27 337 306 308 16 5 359 358 359 8 15 5 346 341 332 310 288 272 274 246 205 202 208 188 177 180 188 190 190 191 201 213 215 226 239 242 253 262 257 252 250 253 258 253 237 227 224 222 215 206 201 195 191 189 186 181 180 177 172 174 186 195 205 220 238 249 256 258 255 251 249 248 249 249 250 257 266 274 280 283 285
6 34 27 11 360 321 288 246 258 302 324 326 321 333 348 340 332 324 320 322 324 323 319 310 272 189 170 170 178 192 192 187 191 213 235 243 238 236 243 250 257 263 261 257 253 249 244 237 231 227 221 214 206 198 197 197 194 193 194 190 184 177 166 159 165 181 207 244 253 253 253 252 246 243 243 243 246 253 265 278 287 294 298 299 300
348 355 357 355 351 345 352 354 314 284 313 318 299 284 270 267 285 299 301 305 310 311 310 310 311 312 299 283 251 219 214 222 240 250 246 235 234 239 246 251 255 263 268 259 247 240 230 216 213 215 212 206 203 196 193 197 199 200 202 200 192 185 177 168 161 149 157 238 247 245 245 242 235 233 238 250 271 288 298 304 308 309 310 311 311
336 335 337 341 339 333 332 329 319 311 313 313 304 289 268 257 257 262 268 277 286 290 289 290 295 295 285 275 274 280 277 265 255 245 231 227 234 238 244 254 259 267 275 262 233 219 208 196 194 198 194 191 195 193 190 194 201 204 205 205 199 192 187 181 170 145 111 100 175 202 203 207 213 232 275 302 311 313 314 315 317 318 320 324 325
326 326 328 330 328 326 322 316 314 312 310 314 316 308 300 295 281 267 264 264 264 267 274 281 287 288 282 277 274 272 272 273 264 240 221 220 226 229 242 260 267 271 271 240 203 193 184 174 171 174 177 179 183 190 193 196 200 203 204 206 202 194 189 186 182 172 130 72 82 144 158 171 260 306 319 320 320 321 324 328 332 333 333 334 330
313 311 312 315 316 315 313 309 308 307 306 309 308 299 294 292 287 284 284 277 268 267 271 274 279 282 278 272 270 269 270 276 277 258 236 231 233 239 251 259 262 268 254 204 182 177 169 162 159 162 171 179 183 189 196 197 197 198 199 200 198 194 192 197 209 219 218 34 50 126 168 302 307 317 325 326 325 329 335 341 342 339 336 332 325
298 296 300 304 304 302 300 299 297 297 297 297 294 290 287 282 279 281 283 278 270 267 262 258 261 269 274 275 279 283 283 281 279 274 264 252 245 246 247 245 249 251 222 183 170 168 163 158 156 159 170 182 186 187 192 193 190 189 189 189 191 196 216 236 248 260 250 249 282 294 300 304 310 319 325 323 320 326 331 334 335 334 332 329 326
289 290 292 293 289 287 288 288 288 290 290 288 285 280 273 270 271 275 278 278 275 269 260 253 256 262 267 270 272 274 275 272 268 267 265 256 250 247 238 226 225 222 198 173 166 167 163 156 155 158 164 174 179 182 182 182 183 185 184 184 187 195 204 204 207 248 258 255 265 280 292 302 312 321 322 317 316 318 316 316 324 332 334 332 329
295 295 297 298 293 286 281 279 280 281 281 281 282 277 270 268 271 271 272 275 274 267 258 252 255 258 259 260 261 262 263 262 261 264 266 261 253 242 222 200 192 193 185 171 166 166 162 158 159 161 163 168 173 177 177 176 178 182 182 178 173 171 164 158 197 240 256 269 281 292 302 312 322 333 338 339 338 337 330 325 328 332 332 330 328
298 299 304 308 305 299 293 289 286 285 288 292 294 293 291 293 293 287 283 284 284 278 267 259 259 259 256 253 256 259 259 258 256 255 257 256 240 216 197 186 182 180 177 173 171 172 170 165 162 164 168 169 170 173 175 175 174 172 168 163 159 163 177 204 232 254 278 296 304 313 325 339 354 1 1 1 358 353 346 338 333 332 331 329 327
297 300 304 304 301 299 303 306 305 304 305 303 300 300 302 303 302 302 301 301 303 303 296 287 281 272 259 250 250 255 259 257 251 240 217 191 184 180 180 185 187 188 189 186 183 180 177 175 172 170 167 164 168 175 175 171 168 166 164 166 175 193 212 226 251 287 307 320 343 16 23 18 11 0 354 354 352 348 343 337 332 331 329 326 323
297 299 300 301 300 296 294 296 297 300 301 298 295 293 292 292 292 294 296 297 296 297 296 294 288 276 263 254 250 250 254 248 232 205 169 160 168 174 182 190 197 204 207 204 198 193 190 189 187 180 172 169 171 174 172 168 168 171 175 181 188 197 211 239 292 322 1 62 58 45 34 21 9 358 354 354 351 345 338 331 328 326 323 320 318
303 302 301 303 304 301 297 295 295 297 297 296 294 292 289 288 288 287 287 288 287 286 285 284 280 270 263 257 248 244 245 234 205 184 168 159 158 168 182 189 192 198 209 220 219 213 207 201 192 183 181 180 174 167 164 167 170 173 178 181 179 178 195 216 55 68 79 72 50 39 32 19 8 2 0 355 347 338 333 328 326 324 320 317 315
315 310 304 300 295 293 292 291 291 292 289 285 284 286 286 286 284 281 277 277 276 274 271 270 271 270 267 261 248 238 233 213 190 180 172 163 154 153 165 177 185 194 212 229 226 218 210 203 192 181 174 170 165 160 160 164 167 171 174 168 149 127 116 116 107 90 74 59 46 37 27 14 6 2 357 349 340 335 332 329 327 324 321 319 316
Height
758 762 763 764 766 768 771 773 775 777 779 782 785 788 790 791 794 795 797 799 799 801 803 804 806 807 807 807 807 807 808 808 809 809 810 811 812 813 813 814 815 815 816 816 816 816 816 817 817 818 818 818 819 820 821 821 822 823 824 824 825 826 827 828 829 830 830 831 831 831 832 832 833 833 833 833 833 833 833 834 834 834 835 836 836
759 761 763 764 766 767 770 772 774 776 777 781 784 787 789 791 793 795 796 798 799 801 803 804 806 807 807 807 807 808 808 808 809 809 810 811 812 813 813 814 814 814 815 815 815 816 816 816 817 818 818 818 819 820 820 821 822 823 824 825 826 826 828 829 829 830 830 831 831 831 832 832 832 832 833 833 832 832 833 833 834 833 834 834 835
759 761 762 764 765 766 769 771 773 775 777 780 783 786 788 791 793 794 796 797 800 802 803 805 806 807 807 807 807 808 808 808 809 810 810 810 811 812 813 813 814 814 815 815 815 816 816 816 817 818 818 818 819 819 819 820 822 823 824 825 826 827 828 829 829 829 830 831 832 832 833 833 833 833 833 833 833 832 833 833 833 833 833 833 833
759 761 761 763 765 766 767 769 771 774 776 779 782 785 788 790 792 793 795 797 800 802 803 804 806 807 808 808 808 808 809 810 809 810 810 810 811 812 813 813 814 814 815 815 816 816 817 817 817 818 818 818 819 819 819 820 821 823 824 825 826 826 827 828 829 829 829 830 832 833 833 834 834 834 833 833 833 832 832 832 832 833 833 833 832
758 760 761 761 763 764 765 768 770 772 775 777 780 784 786 789 791 793 795 797 800 802 803 804 805 807 808 809 810 810 810 810 810 810 811 811 811 812 813 813 813 814 814 815 816 816 817 817 818 818 819 819 819 819 819 820 821 823 824 825 825 826 826 827 828 829 829 830 831 832 833 834 835 834 833 833 833 832 832 832 832 832 833 833 833
753 757 759 760 762 764 766 767 769 771 773 776 780 783 786 788 791 793 795 798 801 802 803 804 805 806 807 808 809 810 811 811 810 809 810 811 811 812 812 813 813 813 814 815 815 816 816 817 818 819 819 818 819 819 820 821 822 823 824 824 825 825 826 826 827 828 829 830 831 831 832 833 833 833 834 834 833 832 832 832 832 832 833 833 833
753 755 757 759 761 763 765 766 768 770 772 776 779 782 784 787 790 792 795 799 801 802 803 804 805 806 806 807 808 809 810 810 810 810 810 810 811 811 812 813 813 813 814 815 815 816 816 817 818 819 819 819 819 820 820 821 822 823 824 824 824 825 825 826 826 828 829 830 831 831 831 832 832 833 834 834 834 833 832 832 832 832 832 833 833
750 753 754 755 757 759 761 763 765 768 771 775 777 780 782 785 788 790 793 798 801 803 804 804 805 805 806 807 809 809 809 810 811 811 811 811 811 812 812 813 813 814 815 815 816 816 817 817 818 819 819 820 821 821 821 822 823 823 824 824 824 824 825 825 826 827 828 829 830 831 831 832 832 833 833 833 834 834 833 832 832 832 832 832 832
745 748 750 752 754 757 759 761 764 767 770 772 774 777 780 783 786 787 789 796 801 803 804 804 805 805 806 807 808 810 810 811 811 811 812 811 811 812 812 813 814 814 815 816 817 818 818 818 819 820 820 821 822 822 823 823 824 824 824 825 824 825 825 826 826 827 828 829 829 830 831 832 832 833 833 833 833 834 833 832 832 832 832 832 832
746 748 750 751 753 755 757 760 763 766 768 771 773 775 778 780 784 785 785 792 800 803 804 805 805 805 806 806 807 808 810 811 812 812 813 812 812 812 812 813 814 815 816 817 818 818 819 820 820 821 822 822 822 823 824 824 825 825 825 826 826 826 826 827 827 828 829 829 829 830 830 831 832 833 833 833 833 833 833 833 832 832 832 831 831
748 750 752 753 755 757 759 761 763 766 768 771 772 774 777 779 782 785 785 789 797 802 803 805 805 805 805 805 805 806 808 810 812 812 813 812 812 812 813 814 815 816 817 818 819 819 820 821 822 823 823 823 824 824 825 826 826 826 826 827 827 828 828 828 829 829 830 830 830 830 831 831 832 833 833 833 833 833 834 834 833 832 832 832 831
751 754 755 755 757 758 761 762 763 766 768 770 773 775 778 780 781 784 785 786 793 800 803 805 806 805 805 804 804 805 806 808 810 812 812 812 812 813 813 814 815 817 818 818 820 821 821 822 823 824 824 825 825 826 826 827 827 827 828 828 829 829 829 830 830 830 831 831 831 831 831 832 832 833 833 833 833 833 834 834 834 833 833 832 831
753 755 756 756 758 759 760 762 763 765 766 769 773 775 776 777 778 780 784 785 790 797 802 805 806 807 806 804 803 804 805 807 809 810 811 812 812 813 814 815 816 817 818 819 820 821 822 823 824 825 825 826 826 827 827 828 828 828 829 829 829 830 830 830 831 831 831 831 832 832 832 832 833 833 833 833 833 833 833 834 834 834 834 832 831
752 753 755 755 756 757 759 760 761 762 764 768 771 771 772 774 777 781 786 788 791 796 802 805 807 808 807 805 803 803 804 805 807 809 810 811 812 813 814 815 816 817 819 820 821 822 823 824 825 826 826 827 828 828 828 829 829 830 830 830 830 831 831 831 831 831 832 832 832 833 833 833 833 833 833 833 833 833 833 834 834 834 833 832 831
752 753 755 755 755 757 758 759 759 759 761 764 767 770 772 776 780 785 789 793 794 797 800 804 807 810 809 806 803 803 803 804 806 808 809 810 811 813 814 815 817 818 819 821 822 823 824 825 826 826 827 828 829 829 830 830 831 831 831 831 832 832 832 832 832 832 832 833 833 833 834 834 834 834 834 834 834 834 834 834 834 834 834 832 831
754 755 757 757 757 758 758 759 759 758 761 764 768 773 777 779 782 785 789 793 796 797 797 800 807 810 810 807 804 802 803 803 805 807 808 809 810 811 813 815 816 818 820 821 823 824 825 825 826 827 828 828 829 830 831 831 832 832 833 833 833 833 833 833 833 833 833 834 834 834 834 834 834 834 835 835 835 835 835 835 835 835 835 834 833
757 758 760 760 760 760 760 760 761 761 763 766 770 776 779 780 781 783 787 790 795 798 796 797 804 808 808 807 804 802 803 803 804 806 807 808 809 810 812 814 815 817 819 821 822 823 825 826 827 827 828 829 830 831 831 832 833 833 834 834 834 834 835 835 835 835 835 835 835 835 835 835 835 835 835 835 835 835 836 836 836 836 836 836 835
760 761 762 763 762 761 761 761 763 763 765 767 769 773 776 778 780 782 786 788 791 797 798 797 801 804 805 805 804 802 802 803 804 805 806 807 808 809 810 812 814 816 818 820 822 823 825 826 827 828 829 830 831 831 832 832 833 833 834 834 835 835 835 836 836 836 836 836 836 836 836 836 836 836 836 836 836 836 836 836 836 836 836 836 836
762 764 765 764 763 763 763 763 764 765 767 768 769 771 773 776 779 781 784 785 788 794 796 796 798 801 802 802 802 802 802 803 804 805 806 806 808 808 809 811 813 815 817 819 821 823 825 826 827 828 829 830 831 832 833 833 833 833 834 834 835 835 836 836 836 836 836 836 836 836 836 836 836 836 836 836 836 836 836 836 836 836 836 836 836
764 766 766 765 765 765 765 766 766 767 768 769 770 772 773 776 779 780 781 783 785 789 791 792 794 797 798 799 801 801 802 803 803 804 805 806 807 808 809 810 812 815 817 818 820 822 824 825 827 828 829 830 831 832 833 833 834 834 834 834 835 835 835 836 836 837 837 837 837 837 837 837 837 837 836 836 836 836 836 836 836 836 836 836 835
765 766 767 766 766 766 766 768 768 768 769 770 772 773 774 776 778 778 779 781 783 786 788 789 791 793 795 797 799 800 801 802 803 804 804 805 807 808 809 810 812 814 816 818 820 822 823 825 826 827 829 830 831 832 832 833 833 834 834 834 835 835 835 835 836 836 836 837 837 837 838 838 838 837 837 837 836 836 836 836 836 835 835 835 835
765 766 767 767 767 768 768 769 769 770 770 771 772 773 775 777 778 778 779 780 783 785 787 787 788 790 792 795 796 798 800 800 801 803 804 805 806 807 808 809 811 813 815 817 819 821 823 825 826 827 828 829 830 831 832 832 833 833 834 834 834 835 835 835 835 836 836 836 837 837 838 838 838 838 838 837 837 837 837 836 836 835 835 835 835
765 766 767 768 768 768 769 770 771 772 772 773 774 774 775 777 778 779 780 782 784 785 787 788 787 787 789 792 793 795 797 799 800 802 803 804 805 805 806 807 809 811 813 815 818 820 822 823 825 826 827 828 829 830 831 832 832 833 833 833 834 834 834 834 834 835 835 835 836 837 837 837 837 838 838 838 837 837 836 836 835 835 835 834 834
766 767 767 768 769 769 770 771 773 774 774 775 775 776 777 778 779 780 780 782 783 785 787 789 789 788 787 789 790 792 794 796 798 800 801 803 804 805 806 807 808 810 812 814 817 819 821 822 823 824 825 826 827 828 829 830 831 832 832 832 833 833 833 833 833 833 834 834 835 835 836 836 836 837 837 837 837 837 836 835 835 835 834 833 833
766 768 768 769 769 770 771 772 774 775 776 776 777 777 778 779 780 780 781 782 783 785 787 788 790 792 790 788 788 790 792 794 796 797 799 801 803 805 806 807 807 809 810 812 815 817 819 821 822 823 823 823 824 825 827 827 829 829 830 830 831 831 832 832 832 833 833 833 833 834 834 835 836 836 837 837 837 836 836 835 835 834 834 833 833
766 767 769 769 770 771 772 773 775 776 776 777 777 778 779 780 781 782 782 782 783 785 787 787 790 793 793 790 788 788 789 791 792 794 796 798 801 804 806 807 807 808 809 811 812 814 815 817 820 822 822 822 822 823 824 825 826 827 828 828 829 829 830 831 831 832 832 832 832 833 834 834 835 835 836 837 837 836 836 835 834 834 833 833 832
766 767 769 769 770 771 772 774 776 776 777 778 778 779 780 781 782 783 783 783 783 784 785 787 789 789 790 791 790 790 791 792 793 793 794 796 798 801 804 806 808 808 809 811 812 813 813 814 816 818 820 821 821 821 821 822 823 824 825 826 827 827 828 829 830 831 831 832 832 833 833 833 834 835 835 836 836 836 836 835 834 834 833 833 832
766 767 769 769 770 772 772 774 776 777 778 779 779 780 781 782 783 783 784 784 784 784 784 785 786 786 787 790 793 794 795 796 795 795 795 796 797 799 801 804 806 808 809 810 811 811 812 812 812 813 815 817 819 819 819 819 820 821 823 823 824 826 826 828 829 829 830 831 831 832 832 833 833 833 834 835 835 835 835 835 834 834 833 832 832
769 769 769 770 771 772 773 775 776 778 779 780 781 782 782 783 784 785 785 786 786 786 786 786 786 787 788 790 792 793 794 794 794 794 796 797 798 800 801 803 804 806 807 808 809 809 809 809 810 810 811 813 815 817 817 818 818 818 820 821 822 823 824 826 827 828 828 829 830 830 831 831 832 832 833 833 833 834 834 834 834 833 832 831 831
771 770 769 770 771 772 774 776 777 779 780 781 783 784 784 785 785 786 787 787 788 788 788 788 789 789 789 790 791 791 792 793 794 795 797 797 799 800 801 802 803 804 805 806 807 807 807 807 807 807 808 810 812 814 815 816 816 816 817 818 819 821 822 823 824 825 826 827 827 828 829 830 831 831 831 832 832 833 833 833 833 832 831 830 830
769 770 770 771 772 773 775 776 778 780 781 782 784 785 786 787 787 788 788 788 789 789 790 791 791 791 792 792 792 793 794 795 796 796 797 797 798 799 800 801 802 803 804 805 805 806 805 805 806 806 807 809 810 811 812 813 814 815 815 816 817 818 819 820 821 822 823 824 825 826 827 828 829 830 830 831 831 832 831 831 831 831 830 830 829
768 770 771 772 773 774 775 776 778 780 781 783 784 785 787 789 789 789 789 789 790 790 791 792 792 793 793 794 794 795 795 796 797 797 798 798 799 799 799 800 800 801 802 803 804 804 804 804 805 805 806 807 808 809 809 810 811 812 813 814 814 815 816 817 818 819 820 821 823 824 826 827 828 828 829 830 830 830 830 830 830 830 830 829 829
771 771 771 773 774 775 776 777 778 780 782 783 784 785 787 789 790 791 791 791 791 791 792 793 793 794 794 794 795 795 796 797 797 797 798 798 799 799 799 800 800 800 801 801 802 803 803 803 803 804 805 805 806 806 807 808 808 809 810 811 811 812 813 814 815 816 818 819 821 823 824 825 826 827 828 828 829 829 829 829 829 828 828 829 828
778 778 777 777 776 777 778 779 780 781 783 784 784 786 787 788 790 790 791 791 792 792 792 792 793 794 794 795 795 795 796 796 797 798 798 798 799 799 800 800 800 800 800 800 801 801 802 802 803 803 804 804 805 805 805 805 806 807 808 808 809 809 810 812 814 815 817 819 820 822 822 823 824 825 826 827 827 827 827 827 827 827 827 827 827
783 784 784 781 780 780 780 780 781 782 783 784 785 786 787 788 789 789 790 791 792 792 792 792 793 793 794 795 795 795 796 796 797 798 798 798 799 799 799 800 800 800 800 800 801 801 801 802 802 803 803 803 803 803 803 804 804 805 806 807 808 809 810 812 813 815 818 819 820 821 822 823 823 824 825 826 826 826 826 826 825 825 825 825 825
786 786 786 784 783 783 783 782 782 782 783 784 785 786 787 788 788 789 790 790 791 791 792 791 792 792 793 793 794 795 796 796 797 797 797 797 798 798 798 799 799 799 799 800 800 800 800 800 800 801 802 802 802 802 802 803 803 804 805 807 808 809 810 811 813 815 818 819 819 820 821 822 822 823 824 825 825 825 824 824 824 823 823 824 824
787 788 788 788 786 786 786 786 785 785 785 785 786 786 787 787 788 789 789 790 790 790 791 791 791 792 792 792 793 794 795 795 796 796 796 796 796 797 797 797 798 798 798 799 799 799 799 799 799 800 800 800 801 801 802 803 803 804 805 806 808 809 811 812 814 816 817 817 818 819 820 821 821 821 822 823 823 822 822 822 821 821 821 821 821
789 789 789 789 788 788 789 789 789 789 788 787 787 786 786 787 788 788 789 790 790 790 791 791 791 791 791 791 792 792 793 794 794 795 795 795 795 796 796 796 797 797 797 797 798 798 797 797 798 799 799 799 801 801 802 803 803 804 805 806 808 809 811 812 814 815 816 817 817 818 818 819 819 819 820 820 820 820 820 819 819 819 819 818 818
789 789 789 788 788 789 790 790 790 790 789 788 787 786 787 787 788 788 789 789 789 790 790 791 791 790 790 791 791 791 792 792 793 793 794 794 795 795 795 795 796 796 796 796 796 796 796 796 797 797 798 799 800 801 801 802 803 804 805 806 807 809 810 812 813 814 815 816 816 816 817 817 817 817 818 818 818 819 819 818 818 818 817 817 816
789 789 789 788 788 788 788 788 789 789 788 787 787 786 786 787 788 788 789 788 789 789 789 790 790 790 790 790 790 790 791 791 792 792 792 793 794 794 795 795 795 795 795 794 794 794 794 794 795 796 797 798 799 800 801 802 803 804 805 806 807 808 809 811 812 813 814 814 815 815 815 816 816 816 817 817 817 818 818 818 817 817 816 815 814
789 789 788 788 788 787 787 787 787 787 786 786 786 786 786 786 786 787 788 788 788 788 788 789 789 789 789 789 789 790 790 790 790 791 791 792 792 793 793 794 794 794 793 793 792 792 792 793 794 795 796 797 798 799 800 801 803 804 805 805 807 808 809 810 811 813 814 814 814 814 815 815 815 815 816 816 816 816 816 816 815 815 814 812 811
788 788 787 787 787 787 786 786 786 786 785 785 785 785 785 785 785 786 786 787 787 787 787 788 788 788 788 788 788 789 789 789 789 789 789 790 790 791 791 792 792 792 792 791 791 790 791 792 793 795 796 796 797 798 799 801 802 803 805 806 807 808 808 809 810 812 813 813 813 814 814 814 815 815 815 815 815 815 814 813 813 812 811 811 810
788 787 786 785 785 785 785 784 784 784 784 784 784 783 783 783 783 783 784 785 785 786 786 786 786 787 787 787 788 788 788 788 788 788 788 788 788 789 789 790 790 791 790 790 789 789 790 791 793 794 796 796 798 799 799 800 802 803 804 806 807 808 808 809 810 811 812 812 812 812 813 813 814 814 814 813 813 813 812 811 811 811 810 809 809
788 787 786 784 784 782 782 782 781 781 782 782 781 781 781 780 780 781 782 782 782 783 783 783 784 785 785 786 786 786 786 786 786 786 786 786 786 787 787 788 788 789 788 788 788 788 789 790 792 793 795 797 798 799 800 801 802 803 804 805 806 807 808 809 809 810 810 811 811 811 811 812 812 813 812 812 812 811 811 811 810 810 809 808 808
786 786 785 784 782 781 779 779 778 778 779 778 779 779 778 778 778 779 779 779 780 780 780 781 781 782 783 784 784 784 784 784 784 784 784 784 784 784 784 785 786 787 787 787 788 788 789 790 791 793 794 796 798 799 800 802 802 804 804 805 806 806 807 808 808 809 809 810 810 810 811 811 811 811 811 810 810 810 810 810 809 809 808 807 806
785 784 783 782 781 780 778 777 776 776 776 776 776 776 775 775 775 776 776 777 777 777 777 778 778 779 780 781 782 782 782 782 782 782 781 781 781 781 782 783 784 785 786 786 787 789 789 790 791 793 794 796 797 799 801 801 802 803 804 805 805 806 806 807 807 808 809 809 810 810 810 810 810 810 810 809 809 809 808 808 808 808 807 806 805
784 782 782 781 780 779 777 776 775 774 774 774 774 773 773 773 773 773 774 774 774 774 775 775 775 776 777 778 778 779 779 779 780 780 779 779 779 780 781 782 783 784 785 786 787 788 789 790 791 792 794 795 797 799 800 801 802 803 804 804 805 805 806 807 807 808 809 809 810 810 810 810 810 809 809 809 808 808 808 807 807 807 806 804 803
781 780 779 779 778 777 776 775 774 773 773 772 772 771 771 771 771 771 772 771 771 772 772 773 774 774 774 775 775 776 776 776 777 777 777 777 777 779 780 781 782 783 784 785 786 786 787 788 790 791 793 795 797 798 799 800 802 803 803 804 805 805 806 807 807 808 808 809 809 809 809 809 809 809 808 808 808 807 807 806 806 805 804 803 802
778 777 776 775 775 774 773 772 772 771 770 770 769 768 768 768 768 769 769 769 769 770 770 771 772 772 772 773 774 774 774 774 774 775 775 776 776 777 779 780 781 782 783 784 785 786 787 788 789 790 792 793 796 798 799 801 802 803 803 804 805 806 806 807 808 808 808 808 808 809 809 809 808 808 808 807 807 806 806 805 805 804 802 801 800
776 775 774 773 772 771 770 769 768 768 768 767 766 765 765 765 765 766 766 766 766 767 767 768 769 769 770 771 771 772 772 771 772 773 774 775 775 776 777 778 780 781 782 783 784 786 787 787 788 790 791 792 794 797 799 801 802 803 804 805 805 806 807 807 807 807 807 808 808 808 809 808 808 808 808 807 807 806 805 804 803 802 801 799 798
775 774 772 771 770 769 767 766 765 765 764 764 763 762 762 762 762 763 763 763 763 763 764 764 765 766 767 767 768 768 768 768 769 771 772 773 774 775 777 778 779 780 782 783 784 785 786 787 788 790 792 794 796 798 800 802 803 803 804 805 806 806 806 807 807 807 807 808 808 809 809 809 809 809 808 807 807 806 805 803 802 800 799 797 795